This is the latest recevied weather packets stored in our database for station/object KC1HBM. If no packets are shown the sender has not sent any weather packets the latest 10 day(s).
| Time | Temp. | Humidity | Pressure | Rain* | Wind** | Luminosity | Snow |
|---|---|---|---|---|---|---|---|
| 1778083400 | 14.44° C | 86% | 1006.2 hPa | 0 mm | - | 147 W/m² | - |
| 1778083099 | 14.44° C | 86% | 1006.6 hPa | 0 mm | - | 196 W/m² | - |
| 1778082795 | 14.44° C | 87% | 1006.5 hPa | 0 mm | - | 163 W/m² | - |
| 1778081668 | 13.89° C | 89% | 1006.6 hPa | 0 mm | - | 108 W/m² | - |
| 1778081365 | 13.89° C | 89% | 1006.8 hPa | 0 mm | - | 92 W/m² | - |
| 1778081062 | 13.89° C | 88% | 1006.7 hPa | 0 mm | - | 96 W/m² | - |
| 1778080761 | 13.89° C | 89% | 1006.7 hPa | 0 mm | - | 128 W/m² | - |
| 1778080457 | 13.89° C | 88% | 1006.8 hPa | 0 mm | - | 147 W/m² | - |
| 1778080155 | 13.89° C | 89% | 1006.6 hPa | 0 mm | - | 187 W/m² | - |
| 1778079851 | 13.89° C | 89% | 1006.7 hPa | 0 mm | - | 131 W/m² | - |
| 1778079548 | 13.89° C | 88% | 1006.8 hPa | 0 mm | - | 106 W/m² | - |
| 1778079244 | 13.89° C | 88% | 1006.4 hPa | 0 mm | - | 116 W/m² | - |
| 1778078942 | 14.44° C | 88% | 1006.4 hPa | 0 mm | - | 170 W/m² | - |
| 1778078638 | 14.44° C | 87% | 1006.4 hPa | 0 mm | - | 230 W/m² | - |
| 1778078336 | 13.89° C | 89% | 1006.5 hPa | 0 mm | - | 333 W/m² | - |
| 1778078033 | 13.89° C | 89% | 1006.4 hPa | 0 mm | - | 270 W/m² | - |
| 1778077732 | 13.89° C | 90% | 1006.5 hPa | 0 mm | - | 251 W/m² | - |
| 1778077429 | 13.33° C | 90% | 1006.5 hPa | 0 mm | - | 195 W/m² | - |
| 1778077127 | 13.33° C | 90% | 1006.6 hPa | 0 mm | - | 155 W/m² | - |
| 1778076825 | 13.33° C | 91% | 1006.8 hPa | 0 mm | - | 148 W/m² | - |
| 1778076523 | 13.33° C | 92% | 1006.9 hPa | 0 mm | - | 122 W/m² | - |
| 1778076219 | 13.33° C | 91% | 1006.8 hPa | 0 mm | - | 104 W/m² | - |
| 1778075916 | 13.33° C | 91% | 1006.9 hPa | 0 mm | - | 97 W/m² | - |
| 1778075613 | 13.33° C | 92% | 1006.8 hPa | 0 mm | - | 103 W/m² | - |
| 1778075309 | 13.33° C | 92% | 1007 hPa | 0 mm | - | 169 W/m² | - |
* Rain latest hour (hover to see other rain measurements)
** Current wind speed in m/s (hover to see current wind gust speed)